Starlink 32124

operational
NORAD ID: 60298 Int'l Des: 2024-132 Owner: SPXS Country: US Constellation: starlink
LEOCIRCULAR

About Starlink 32124

Description loading...

Live Position

Loading 3D Globe...

Upcoming Passes

Altitude History

Altitude vs Time

uPlot chart will show altitude changes over time

Two-Line Element Set

1 60298U 24132W 25260.90840393 -.00001405 00000-0 -35329-4 0 9996
2 60298 53.1583 135.2090 0001163 70.6280 289.4847 15.30192212 65106
Epoch: Sep 17, 2025 • Age: 13 hours

Current Status

Altitude 474.9 km
Velocity 7.63 km/s
Sub-Earth Point 12.10°N, 11.75°W
Launch Date Jul 28, 2024
Age 1.1 years
Type internet

Technical Details

Classification Payload
Mass 730.00 kg
Dry Mass 700.00 kg
Total Mass 730.00 kg
Length 0.30 m
Diameter 4.10 m
Span 29.00 m
Shape Box + pan
Manufacturer SPXS
Bus Type Starlink V2M
Phase Status In Orbit
Owner/State SPXS/US

Large Constellations

Loading constellations...